Flag Weather past 2 weeks in Kingston, Ontario, Canada

Now
55 °F

Partly sunny.


Feels Like: 51 °F
Forecast: N/A
Wind: 20 mph from South

Location: Kingston

Current Time: Nov 24, 2014 at 3:41:19 PM

Latest Report: Nov 24, 2014 at 3:00 PM


Visibility: 15 mi

Pressure: 29.24 "Hg

Humidity: 77%

Dew point: 48 °F

Location of KingstonLocation

Historic Weather in Kingston — Graph

°F

Kingston temperature yesterday

Maximum temperature yesterday: 50 °F (at 11:00 AM)
Minimum temperature yesterday: 45 °F (at 6:00 AM)
Average temperature yesterday: 47 °F

Past Weeks' High & Low Weather Summary

 TemperatureHumidityPressure
High57 °F (Nov 11, 12:00 PM)100% (Nov 16, 10:00 PM)30.42 "Hg (Nov 16, 10:00 PM)
Low14 °F (Nov 21, 7:00 AM)43% (Nov 21, 2:00 PM)29.24 "Hg (Nov 24, 2:00 PM)
Average36 °F72%29.95 "Hg
* Reported Nov 9 2:00 PM — Nov 24 2:00 PM, Kingston, Weather by CustomWeather, © 2014

Note: Actual official high and low records may vary slightly from our data, if they occured in-between our weather recording intervals... More about our weather records

Advertising

Kingston weather history for previous 24 hours

 ConditionsComfort  
Time TempWeatherWind HumidityBarometerVisibility
2:00 PM
Nov 24
57 °FPartly sunny.20 mph77%29.24 "Hg15 mi
1:00 PM55 °FPartly sunny.17 mph82%29.26 "Hg15 mi
12:00 PM55 °FPartly sunny.22 mph82%29.28 "Hg15 mi
11:00 AM54 °FPartly sunny.16 mph88%29.31 "Hg15 mi
10:00 AM52 °FPartly sunny.21 mph94%29.33 "Hg15 mi
9:00 AM52 °FBroken clouds.26 mph94%29.32 "Hg15 mi
8:00 AM52 °FOvercast.28 mph88%29.32 "Hg15 mi
7:00 AM50 °FOvercast.30 mph94%29.34 "Hg15 mi
6:00 AM50 °FOvercast.26 mph88%29.37 "Hg12 mi
11:00 PM
Nov 23
50 °FMostly cloudy.14 mph67%29.80 "Hg15 mi
10:00 PM48 °FOvercast.13 mph71%29.82 "Hg15 mi
9:00 PM48 °FPassing clouds.10 mph76%29.87 "Hg15 mi
8:00 PM46 °FPartly cloudy.6 mph87%29.90 "Hg15 mi
7:00 PM46 °FMostly cloudy.9 mph87%29.91 "Hg15 mi
6:00 PM46 °FPartly cloudy.13 mph87%29.94 "Hg15 mi
5:00 PM46 °FPartly cloudy.8 mph93%29.95 "Hg15 mi
4:00 PM46 °FMostly cloudy.9 mph93%29.97 "Hg15 mi
3:00 PM46 °FMostly cloudy.7 mph87%29.98 "Hg15 mi
Weather by CustomWeather, © 2014

See weather overviewHow to use our weather pages